Change the Weather History Date:

Monday, October 29, 2012

  Actual Average Record
Temperature  
Mean Temperature 60 °F -  
Max Temperature 64 °F 57 °F 74 °F (1971)
Min Temperature 55 °F 42 °F 30 °F (2004)
Degree Days  
Heating Degree Days 6    
Growing Degree Days 10 (Base 50)    
Moisture  
Dew Point 59 °F    
Average Humidity 95    
Maximum Humidity 100    
Minimum Humidity 83    
Precipitation  
Precipitation 2.00 in - - ()
Sea Level Pressure  
Sea Level Pressure 29.29 in    
Wind  
Wind Speed 27 mph (ENE)    
Max Wind Speed 41 mph    
Max Gust Speed 60 mph    
Visibility 4 miles    
Events Rain    
Averages and records for this station are not official NWS values.
T = Trace of Precipitation, MM = Missing Value Source: NWS Daily Summary

Daily Weather History Graph

Daily Weather History Graph

Search for Another Location

Airport or City:

Trip Planner

Search our weather history database for the weather conditions in past years. The results will help you decide how hot, cold, wet, or windy it might be!

Date:

Astronomy

Oct. 29, 2012 Rise Set
Actual Time 7:08 AM EDT 5:38 PM EDT
Civil Twilight 6:39 AM EDT 6:07 PM EDT
Nautical Twilight 6:07 AM EDT 6:39 PM EDT
Astronomical Twilight 5:35 AM EDT 7:11 PM EDT
Moon 5:28 PM EDT (10/29) 6:56 AM EDT (10/29)
Length of Visible Light 11h 27m
Length of Day
10h 30m
Full, 100% of the Moon is Illuminated
Oct 29
Full
Oct 29
Full
Nov 6
Last Quarter
Nov 13
New
Nov 20
First Quarter

Hourly Weather History & Observations

Time (EDT) Temp. Dew Point Humidity Pressure Visibility Wind Dir Wind Speed Gust Speed Precip Events Conditions
12:50 AM 55.4 °F 55.4 °F 100% 29.61 in 4.0 mi NE 23.0 mph 32.2 mph 0.00 in   Overcast
12:53 AM 55.9 °F 55.0 °F 97% 29.61 in 3.0 mi NE 23.0 mph 34.5 mph 0.00 in Rain Light Rain
1:53 AM 55.9 °F 55.0 °F 97% 29.58 in 5.0 mi NE 24.2 mph 33.4 mph 0.00 in   Overcast
2:41 AM 55.4 °F 55.4 °F 100% 29.55 in 2.5 mi NE 25.3 mph 36.8 mph 0.01 in Rain Light Rain
2:53 AM 55.9 °F 55.9 °F 100% 29.54 in 2.5 mi NE 20.7 mph 34.5 mph 0.01 in Rain Light Rain
3:23 AM 55.4 °F 55.4 °F 100% 29.52 in 3.0 mi NE 24.2 mph 35.7 mph 0.00 in Rain Light Rain
3:33 AM 55.4 °F 55.4 °F 100% 29.52 in 2.5 mi NE 25.3 mph 35.7 mph 0.00 in Rain Light Rain
3:44 AM 55.4 °F 55.4 °F 100% 29.51 in 3.0 mi NE 23.0 mph 34.5 mph 0.00 in Rain Light Rain
3:51 AM 55.4 °F 55.4 °F 100% 29.50 in 2.5 mi NE 26.5 mph 40.3 mph 0.01 in Rain Light Rain
3:53 AM 55.9 °F 55.9 °F 100% 29.50 in 2.5 mi NE 24.2 mph 40.3 mph 0.01 in Rain Light Rain
4:00 AM 55.4 °F 55.4 °F 100% 29.50 in 3.0 mi NE 21.9 mph 40.3 mph 0.00 in Rain Light Rain
4:09 AM 55.4 °F 55.4 °F 100% 29.49 in 2.5 mi NE 28.8 mph 35.7 mph 0.00 in Rain Light Rain
4:20 AM 57.2 °F 55.4 °F 94% 29.48 in 3.0 mi NE 27.6 mph 40.3 mph 0.00 in Rain Light Rain
4:53 AM 57.0 °F 55.9 °F 96% 29.46 in 4.0 mi NE 27.6 mph 40.3 mph 0.00 in Rain Light Rain
5:53 AM 57.9 °F 57.0 °F 97% 29.44 in 6.0 mi ENE 21.9 mph 35.7 mph 0.00 in   Overcast
6:53 AM 57.9 °F 57.0 °F 97% 29.41 in 4.0 mi NE 21.9 mph 39.1 mph 0.00 in Rain Light Rain
7:20 AM 57.2 °F 57.2 °F 100% 29.40 in 2.0 mi NE 28.8 mph 40.3 mph 0.01 in Rain Light Rain
7:38 AM 59.0 °F 57.2 °F 94% 29.39 in 3.0 mi ENE 24.2 mph 42.6 mph 0.01 in Rain Light Rain
7:53 AM 59.0 °F 57.9 °F 96% 29.39 in 4.0 mi NE 32.2 mph 46.0 mph 0.01 in Rain Light Rain
8:53 AM 60.1 °F 59.0 °F 96% 29.35 in 6.0 mi ENE 28.8 mph 41.4 mph 0.00 in   Overcast
9:13 AM 60.8 °F 59.0 °F 94% 29.34 in 5.0 mi ENE 27.6 mph 42.6 mph N/A   Overcast
9:53 AM 61.0 °F 59.0 °F 93% 29.31 in 5.0 mi ENE 29.9 mph 44.9 mph N/A   Overcast
10:53 AM 62.1 °F 59.0 °F 90% 29.26 in 5.0 mi ENE 33.4 mph 44.9 mph N/A   Overcast
11:46 AM 62.6 °F 59.0 °F 88% 29.20 in 5.0 mi ENE 34.5 mph 48.3 mph N/A   Overcast
11:53 AM 63.0 °F 59.0 °F 87% 29.20 in 5.0 mi ENE 36.8 mph 48.3 mph N/A   Overcast
12:53 PM 63.0 °F 59.0 °F 87% 29.14 in 5.0 mi ENE 33.4 mph 50.6 mph N/A   Overcast
1:18 PM 64.4 °F 59.0 °F 83% 29.11 in 5.0 mi ENE 32.2 mph 49.5 mph 0.01 in   Haze
1:29 PM 64.4 °F 59.0 °F 83% 29.10 in 5.0 mi ENE 41.4 mph 56.4 mph 0.01 in   Haze
1:53 PM 64.0 °F 59.0 °F 84% 29.09 in 4.0 mi ENE 35.7 mph 59.8 mph 0.01 in Rain Light Rain
2:09 PM 62.6 °F 60.8 °F 94% 29.08 in 2.5 mi East 34.5 mph 51.8 mph 0.00 in Rain Light Rain
2:20 PM 62.6 °F 60.8 °F 94% 29.07 in 3.0 mi East 38.0 mph 56.4 mph 0.00 in Rain Light Rain
2:40 PM 62.6 °F 60.8 °F 94% 29.06 in 4.0 mi East 36.8 mph 54.1 mph 0.00 in   Overcast
2:53 PM 64.0 °F 61.0 °F 90% 29.06 in 4.0 mi East 35.7 mph 55.2 mph 0.00 in Rain Light Rain
3:09 PM 62.6 °F 60.8 °F 94% 29.05 in 1.8 mi East 35.7 mph 51.8 mph 0.00 in Rain Rain
3:27 PM 62.6 °F 60.8 °F 94% 29.06 in 2.5 mi East 41.4 mph 58.7 mph 0.03 in Rain Light Rain
3:36 PM 62.6 °F 60.8 °F 94% 29.07 in 3.0 mi East 38.0 mph 58.7 mph 0.03 in   Overcast
3:53 PM 63.0 °F 62.1 °F 97% 29.08 in 3.0 mi East 34.5 mph 51.8 mph 0.03 in   Overcast
4:01 PM 64.4 °F 62.6 °F 94% 29.09 in 3.0 mi East 36.8 mph 51.8 mph N/A   Overcast
4:22 PM 64.4 °F 62.6 °F 94% 29.10 in 2.0 mi East 39.1 mph 55.2 mph 0.01 in Rain Light Rain
4:33 PM 64.4 °F 62.6 °F 94% 29.11 in 4.0 mi East 38.0 mph 49.5 mph 0.01 in   Overcast
4:53 PM 64.0 °F 62.1 °F 93% 29.13 in 3.0 mi East 33.4 mph 56.4 mph 0.01 in   Overcast
5:53 PM 63.0 °F 62.1 °F 97% 29.17 in 3.0 mi East 27.6 mph 42.6 mph 0.01 in Rain Light Rain
6:53 PM 62.1 °F 61.0 °F 96% 29.18 in 1.5 mi ESE 20.7 mph 33.4 mph 0.57 in Rain Heavy Rain
7:53 PM 62.1 °F 62.1 °F 100% 29.21 in 2.5 mi ESE 19.6 mph 27.6 mph 1.30 in Rain Rain
8:53 PM 61.0 °F 61.0 °F 100% 29.23 in 4.0 mi ESE 17.3 mph 25.3 mph 0.02 in   Overcast
9:16 PM 62.6 °F 60.8 °F 94% 29.24 in 2.5 mi ESE 15.0 mph - 0.01 in Rain Light Rain
9:25 PM 60.8 °F 60.8 °F 100% 29.24 in 3.0 mi ESE 17.3 mph - 0.01 in Rain Light Rain
9:32 PM 60.8 °F 60.8 °F 100% 29.24 in 4.0 mi SE 15.0 mph - 0.01 in   Overcast
9:53 PM 61.0 °F 59.0 °F 93% 29.26 in 4.0 mi ESE 15.0 mph - 0.02 in   Overcast
11:53 PM 60.1 °F 57.9 °F 93% 29.32 in 3.0 mi SE 13.8 mph - N/A   Overcast